EST,Max TemperatureF,Mean TemperatureF,Min TemperatureF,Max Dew PointF,MeanDew PointF,Min DewpointF,Max Humidity, Mean Humidity, Min Humidity, Max Sea Level PressureIn, Mean Sea Level PressureIn, Min Sea Level PressureIn, Max VisibilityMiles, Mean VisibilityMiles, Min VisibilityMiles, Max Wind SpeedMPH, Mean Wind SpeedMPH, Max Gust SpeedMPH,PrecipitationIn, CloudCover, Events, WindDirDegrees
2014-1-1,25,20,16,8,5,3,59,52,43,30.39,30.34,30.20,,,,18,13,25,0.00,,,283
2014-1-2,23,12,1,22,12,-3,96,90,77,30.35,30.11,29.81,,,,23,12,39,1.01,,,23
2014-1-3,37,18,-2,34,-3,-13,88,72,48,30.40,30.01,29.68,,,,22,18,40,0.52,,,333
2014-1-4,25,12,-2,18,1,-12,75,60,35,30.51,30.39,30.29,,,,28,15,36,0.02,,,226
2014-1-5,42,30,21,42,23,11,100,75,50,30.33,30.24,29.93,,,,21,16,30,0.08,,,189
2014-1-6,57,42,25,57,41,13,100,90,60,29.87,29.52,29.31,,,,30,21,46,0.39,,,208
2014-1-7,23,14,5,15,-5,-13,75,48,35,30.24,29.92,29.53,,,,29,19,46,0.00,,,270
2014-1-8,19,11,3,2,-3,-10,60,52,41,30.47,30.41,30.25,,,,15,12,30,0.00,,,251
2014-1-9,26,19,12,6,4,2,65,54,39,30.66,30.56,30.44,,,,15,10,23,0.00,,,268
2014-1-10,37,27,18,37,24,7,100,86,55,30.61,30.46,30.29,,,,14,11,,0.05,,,194
2014-1-11,57,47,37,57,50,37,100,99,96,30.27,29.77,29.32,,,,39,21,55,0.72,,,182
2014-1-12,51,42,33,50,31,22,96,69,53,29.99,29.63,29.34,,,,29,21,43,0.07,,,279
2014-1-13,48,39,30,44,29,22,90,69,44,30.14,30.05,29.92,,,,25,16,37,0.00,,,212
2014-1-14,46,44,41,47,44,40,100,95,86,29.91,29.78,29.64,,,,22,16,36,0.85,,,212
2014-1-15,45,39,33,39,35,31,100,87,65,30.04,29.95,29.80,,,,15,11,25,0.00,,,214
2014-1-16,39,36,34,38,36,34,100,98,96,29.94,29.90,29.85,,,,9,6,,0.00,,,6
2014-1-17,43,38,32,36,28,21,100,76,42,30.00,29.95,29.92,,,,16,9,22,0.00,,,203
2014-1-18,37,34,30,34,32,30,100,96,85,29.92,29.75,29.62,,,,13,8,,0.80,,,359
2014-1-19,30,28,26,30,24,20,100,85,69,29.73,29.65,29.56,,,,21,12,31,0.03,,,234
2014-1-20,37,32,23,27,22,9,82,65,55,29.86,29.63,29.53,,,,23,16,39,0.00,,,245
2014-1-21,21,15,9,7,2,-3,88,66,45,30.06,29.97,29.85,,,,21,12,29,0.24,,,341
2014-1-22,12,8,3,5,-2,-7,84,67,47,29.89,29.75,29.63,,,,20,16,29,0.09,,,330
2014-1-23,18,9,0,-3,-6,-9,69,56,38,30.16,30.04,29.90,,,,17,13,29,0.00,,,279
2014-1-24,15,8,1,-1,-6,-8,66,53,37,30.26,30.18,30.07,,,,21,14,28,0.00,,,260
2014-1-25,35,24,12,27,16,1,96,70,59,30.03,29.64,29.35,,,,33,22,53,0.02,,,207
2014-1-26,21,16,10,15,2,-7,81,56,38,29.90,29.72,29.36,,,,26,17,43,0.00,,,245
2014-1-27,44,31,17,36,20,2,88,66,40,29.99,29.74,29.55,,,,30,18,48,0.03,,,231
2014-1-28,17,13,9,0,-7,-11,51,41,31,30.32,30.22,30.00,,,,22,14,32,0.00,,,276
2014-1-29,23,16,10,8,-1,-8,88,50,27,30.22,30.11,29.99,,,,16,6,25,0.02,,,275
2014-1-30,27,18,10,12,2,-5,74,51,36,30.44,30.34,30.21,,,,17,12,23,0.00,,,227
2014-1-31,39,29,19,22,16,10,85,58,34,30.22,30.11,30.04,,,,20,14,29,0.00,,,248